Location: Eindhoven
(51.4416°N, 5.4697°E)
Time: 15:16:09
(UTC+01:00)

deb Explorer IX - Pass Details

Date: 20 November 2019
Orbit: 546 x 1104 km, 38.8° (Epoch: 11 December)

Event Time Altitude Azimuth Distance (km) Brightness Sun altitude
Rises 04:36:19 0° 254° (WSW) 3,475 - -31.8°
Reaches altitude 10° 04:39:45 10° 237° (WSW) 2,417 - -31.3°
Maximum altitude 04:43:33 19° 195° (SSW) 1,764 - -30.7°
Exits shadow 04:46:03 13° 161° (SSE) 1,960 ? -30.3°
Drops below altitude 10° 04:47:00 10° 152° (SSE) 2,157 ? -30.2°
Sets 04:49:51 0° 133° (SE) 2,974 ? -29.7°
